Time,TemperatureF,DewpointF,PressureIn,WindDirection,WindDirectionDegrees,WindSpeedMPH,WindSpeedGustMPH,Humidity,HourlyPrecipIn,Conditions,Clouds,dailyrainin,SoftwareType,DateUTC
2013-02-17 00:00:00,28.8,19.2,27.08,North,0,0.0,0.0,67,0.00,RA,,0.00,WeatherDisplay:10.37,2013-02-17 06:00:00,
2013-02-17 00:05:00,28.8,19.2,27.08,North,0,0.0,0.0,67,0.00,RA,,0.00,WeatherDisplay:10.37,2013-02-17 06:05:00,
2013-02-17 00:10:00,28.8,19.2,27.08,North,0,0.0,0.0,67,0.00,CLR,,0.00,WeatherDisplay:10.37,2013-02-17 06:10:00,
2013-02-17 00:15:00,28.8,19.2,27.08,North,0,0.0,0.0,67,0.00,CLR,,0.00,WeatherDisplay:10.37,2013-02-17 06:15:00,
2013-02-17 00:20:00,28.2,17.6,27.07,North,0,0.0,0.0,64,0.00,CLR,,0.00,WeatherDisplay:10.37,2013-02-17 06:20:00,
2013-02-17 00:25:00,28.2,17.6,27.07,North,0,0.0,0.0,64,0.00,CLR,,0.00,WeatherDisplay:10.37,2013-02-17 06:25:00,
2013-02-17 00:30:00,28.2,17.6,27.07,North,0,0.0,0.0,64,0.00,CLR,,0.00,WeatherDisplay:10.37,2013-02-17 06:30:00,
2013-02-17 00:35:00,28.2,17.6,27.06,North,0,0.0,0.0,64,0.00,CLR,,0.00,WeatherDisplay:10.37,2013-02-17 06:35:00,
2013-02-17 00:40:00,28.2,17.6,27.07,North,0,0.0,0.0,64,0.00,CLR,,0.00,WeatherDisplay:10.37,2013-02-17 06:40:00,
2013-02-17 00:45:00,28.2,17.6,27.07,North,0,0.0,0.0,64,0.00,CLR,,0.00,WeatherDisplay:10.37,2013-02-17 06:45:00,
2013-02-17 00:50:00,27.1,18.0,27.07,NW,315,0.0,0.0,68,0.00,CLR,,0.00,WeatherDisplay:10.37,2013-02-17 06:50:00,
2013-02-17 00:55:00,27.3,18.1,27.06,North,0,0.0,0.0,68,0.00,CLR,,0.00,WeatherDisplay:10.37,2013-02-17 06:55:00,
2013-02-17 01:00:00,27.3,18.1,27.06,North,0,0.0,0.0,68,0.00,CLR,,0.00,WeatherDisplay:10.37,2013-02-17 07:00:00,
2013-02-17 01:05:00,27.3,18.1,27.06,North,0,0.0,0.0,68,0.00,CLR,,0.00,WeatherDisplay:10.37,2013-02-17 07:05:00,
2013-02-17 01:10:00,27.3,18.1,27.06,North,0,0.0,0.0,68,0.00,CLR,,0.00,WeatherDisplay:10.37,2013-02-17 07:10:00,
2013-02-17 01:15:00,27.3,18.1,27.06,North,0,0.0,0.0,68,0.00,CLR,,0.00,WeatherDisplay:10.37,2013-02-17 07:15:00,
2013-02-17 01:20:00,27.3,18.1,27.05,North,0,0.0,0.0,68,0.00,CLR,,0.00,WeatherDisplay:10.37,2013-02-17 07:20:00,
2013-02-17 01:25:00,27.3,18.1,27.06,North,0,0.0,0.0,68,0.00,CLR,,0.00,WeatherDisplay:10.37,2013-02-17 07:25:00,
2013-02-17 01:30:00,27.3,18.1,27.05,North,0,0.0,0.0,68,0.00,CLR,,0.00,WeatherDisplay:10.37,2013-02-17 07:30:00,
2013-02-17 01:36:00,27.3,18.1,27.06,North,0,0.0,0.0,68,0.00,CLR,,0.00,WeatherDisplay:10.37,2013-02-17 07:36:00,
2013-02-17 01:41:00,27.3,18.1,27.06,North,0,0.0,0.0,68,0.00,CLR,,0.00,WeatherDisplay:10.37,2013-02-17 07:41:00,
2013-02-17 01:46:00,27.3,18.1,27.05,North,0,0.0,0.0,68,0.00,CLR,,0.00,WeatherDisplay:10.37,2013-02-17 07:46:00,
2013-02-17 01:51:00,27.3,18.1,27.05,North,0,0.0,0.0,68,0.00,CLR,,0.00,WeatherDisplay:10.37,2013-02-17 07:51:00,
2013-02-17 01:56:00,27.3,18.1,27.05,North,0,0.0,0.0,68,0.00,CLR,,0.00,WeatherDisplay:10.37,2013-02-17 07:56:00,
2013-02-17 02:01:00,27.3,18.1,27.05,North,0,0.0,0.0,68,0.00,CLR,,0.00,WeatherDisplay:10.37,2013-02-17 08:01:00,
2013-02-17 02:06:00,27.3,18.1,27.04,North,0,0.0,0.0,68,0.00,CLR,,0.00,WeatherDisplay:10.37,2013-02-17 08:06:00,
2013-02-17 02:11:00,26.8,18.3,27.05,South,180,0.0,0.0,70,0.00,CLR,,0.00,WeatherDisplay:10.37,2013-02-17 08:11:00,
2013-02-17 02:16:00,26.8,18.3,27.05,South,180,0.0,0.0,70,0.00,CLR,,0.00,WeatherDisplay:10.37,2013-02-17 08:16:00,
2013-02-17 02:21:00,26.8,18.3,27.05,North,8,0.0,0.0,70,0.00,CLR,,0.00,WeatherDisplay:10.37,2013-02-17 08:21:00,
2013-02-17 02:26:00,26.6,18.1,27.05,NW,315,3.1,3.1,70,0.00,CLR,,0.00,WeatherDisplay:10.37,2013-02-17 08:26:00,
2013-02-17 02:31:00,26.6,18.1,27.05,NW,315,3.5,3.5,70,0.00,CLR,,0.00,WeatherDisplay:10.37,2013-02-17 08:31:00,
2013-02-17 02:36:00,26.4,18.3,27.05,NW,315,1.1,0.0,71,0.00,CLR,,0.00,WeatherDisplay:10.37,2013-02-17 08:36:00,
2013-02-17 02:41:00,26.2,18.1,27.05,NW,315,1.1,1.1,71,0.00,CLR,,0.00,WeatherDisplay:10.37,2013-02-17 08:41:00,
2013-02-17 02:46:00,26.2,18.1,27.04,SE,135,0.0,0.0,71,0.00,CLR,,0.00,WeatherDisplay:10.37,2013-02-17 08:46:00,
2013-02-17 02:51:00,26.1,17.9,27.05,SE,135,0.0,0.0,71,0.00,CLR,,0.00,WeatherDisplay:10.37,2013-02-17 08:51:00,
2013-02-17 02:56:00,25.7,17.6,27.05,South,180,0.0,0.0,71,0.00,CLR,,0.00,WeatherDisplay:10.37,2013-02-17 08:56:00,
2013-02-17 03:01:00,25.7,17.6,27.05,North,0,1.1,0.0,71,0.00,CLR,,0.00,WeatherDisplay:10.37,2013-02-17 09:01:00,
2013-02-17 03:06:00,25.5,17.4,27.04,NW,315,0.0,0.0,71,0.00,CLR,,0.00,WeatherDisplay:10.37,2013-02-17 09:06:00,
2013-02-17 03:11:00,25.2,17.1,27.03,NW,315,3.5,3.5,71,0.00,CLR,,0.00,WeatherDisplay:10.37,2013-02-17 09:11:00,
2013-02-17 03:16:00,24.6,16.6,27.04,NW,315,1.1,1.1,71,0.00,CLR,,0.00,WeatherDisplay:10.37,2013-02-17 09:16:00,
2013-02-17 03:21:00,24.3,16.5,27.04,NW,315,1.1,1.1,72,0.00,CLR,,0.00,WeatherDisplay:10.37,2013-02-17 09:21:00,
2013-02-17 03:26:00,24.3,16.5,27.04,NW,315,1.1,1.1,72,0.00,CLR,,0.00,WeatherDisplay:10.37,2013-02-17 09:26:00,
2013-02-17 03:31:00,23.9,16.5,27.03,NW,315,0.0,0.0,73,0.00,CLR,,0.00,WeatherDisplay:10.37,2013-02-17 09:31:00,
2013-02-17 03:36:00,23.9,16.5,27.03,NW,315,0.0,0.0,73,0.00,CLR,,0.00,WeatherDisplay:10.37,2013-02-17 09:36:00,
2013-02-17 03:41:00,23.5,16.2,27.03,North,0,0.0,0.0,73,0.00,CLR,,0.00,WeatherDisplay:10.37,2013-02-17 09:41:00,
2013-02-17 03:46:00,23.5,16.2,27.03,North,0,0.0,0.0,73,0.00,CLR,,0.00,WeatherDisplay:10.37,2013-02-17 09:46:00,
2013-02-17 03:51:00,23.5,16.2,27.03,North,0,0.0,0.0,73,0.00,CLR,,0.00,WeatherDisplay:10.37,2013-02-17 09:51:00,
2013-02-17 03:56:00,23.5,16.2,27.03,North,0,0.0,0.0,73,0.00,CLR,,0.00,WeatherDisplay:10.37,2013-02-17 09:56:00,
2013-02-17 04:01:00,23.5,16.2,27.02,North,0,0.0,0.0,73,0.00,CLR,,0.00,WeatherDisplay:10.37,2013-02-17 10:01:00,
2013-02-17 04:06:00,23.5,16.2,27.02,North,0,0.0,0.0,73,0.00,CLR,,0.00,WeatherDisplay:10.37,2013-02-17 10:06:00,
2013-02-17 04:11:00,23.5,16.2,27.02,North,0,0.0,0.0,73,0.00,CLR,,0.00,WeatherDisplay:10.37,2013-02-17 10:11:00,
2013-02-17 04:16:00,23.7,16.3,27.01,North,0,0.0,0.0,73,0.00,CLR,,0.00,WeatherDisplay:10.37,2013-02-17 10:16:00,
2013-02-17 04:21:00,23.7,16.3,27.01,North,0,0.0,0.0,73,0.00,CLR,,0.00,WeatherDisplay:10.37,2013-02-17 10:21:00,
2013-02-17 04:26:00,23.7,16.3,27.00,SE,135,0.0,0.0,73,0.00,CLR,,0.00,WeatherDisplay:10.37,2013-02-17 10:26:00,
2013-02-17 04:31:00,23.7,16.3,27.00,SW,225,0.0,0.0,73,0.00,CLR,,0.00,WeatherDisplay:10.37,2013-02-17 10:31:00,
2013-02-17 04:36:00,23.7,16.3,27.00,SW,225,0.0,0.0,73,0.00,CLR,,0.00,WeatherDisplay:10.37,2013-02-17 10:36:00,
2013-02-17 04:41:00,23.7,16.3,27.00,SW,225,0.0,0.0,73,0.00,CLR,,0.00,WeatherDisplay:10.37,2013-02-17 10:41:00,
2013-02-17 04:46:00,23.5,16.2,27.00,SW,225,0.0,0.0,73,0.00,CLR,,0.00,WeatherDisplay:10.37,2013-02-17 10:46:00,
2013-02-17 04:51:00,23.5,16.2,27.00,SW,225,0.0,0.0,73,0.00,CLR,,0.00,WeatherDisplay:10.37,2013-02-17 10:51:00,
2013-02-17 04:56:00,23.5,16.2,26.99,South,180,0.0,0.0,73,0.00,CLR,,0.00,WeatherDisplay:10.37,2013-02-17 10:56:00,
2013-02-17 05:01:00,23.5,16.2,26.99,South,180,0.0,0.0,73,0.00,CLR,,0.00,WeatherDisplay:10.37,2013-02-17 11:01:00,
2013-02-17 05:06:00,23.4,16.0,26.99,South,180,0.0,0.0,73,0.00,CLR,,0.00,WeatherDisplay:10.37,2013-02-17 11:06:00,
2013-02-17 05:11:00,23.2,15.8,26.99,West,270,0.0,0.0,73,0.00,CLR,,0.00,WeatherDisplay:10.37,2013-02-17 11:11:00,
2013-02-17 05:16:00,23.2,15.8,26.99,West,270,0.0,0.0,73,0.00,CLR,,0.00,WeatherDisplay:10.37,2013-02-17 11:16:00,
2013-02-17 05:21:00,23.2,15.8,26.98,North,0,0.0,0.0,73,0.00,CLR,,0.00,WeatherDisplay:10.37,2013-02-17 11:21:00,
2013-02-17 05:26:00,23.2,15.8,26.99,North,0,0.0,0.0,73,0.00,CLR,,0.00,WeatherDisplay:10.37,2013-02-17 11:26:00,
2013-02-17 05:31:00,23.0,15.6,26.98,SW,225,0.0,0.0,73,0.00,CLR,,0.00,WeatherDisplay:10.37,2013-02-17 11:31:00,
2013-02-17 05:36:00,23.2,16.1,26.98,NW,315,0.0,0.0,74,0.00,CLR,,0.00,WeatherDisplay:10.37,2013-02-17 11:36:00,
2013-02-17 05:41:00,23.0,15.9,26.99,North,0,0.0,0.0,74,0.00,CLR,,0.00,WeatherDisplay:10.37,2013-02-17 11:41:00,
2013-02-17 05:46:00,23.0,15.9,26.98,North,0,0.0,0.0,74,0.00,CLR,,0.00,WeatherDisplay:10.37,2013-02-17 11:46:00,
2013-02-17 05:51:00,23.0,15.9,26.98,North,0,0.0,0.0,74,0.00,CLR,,0.00,WeatherDisplay:10.37,2013-02-17 11:51:00,
2013-02-17 05:56:00,22.6,15.9,26.99,North,0,0.0,0.0,75,0.00,CLR,,0.00,WeatherDisplay:10.37,2013-02-17 11:56:00,
2013-02-17 06:01:00,22.6,15.9,26.99,North,0,0.0,0.0,75,0.00,CLR,,0.00,WeatherDisplay:10.37,2013-02-17 12:01:00,
2013-02-17 06:06:00,22.6,15.9,26.99,North,0,0.0,0.0,75,0.00,CLR,,0.00,WeatherDisplay:10.37,2013-02-17 12:06:00,
2013-02-17 06:11:00,22.1,15.4,26.99,North,0,0.0,0.0,75,0.00,CLR,,0.00,WeatherDisplay:10.37,2013-02-17 12:11:00,
2013-02-17 06:16:00,21.9,15.2,26.99,North,0,0.0,0.0,75,0.00,CLR,,0.00,WeatherDisplay:10.37,2013-02-17 12:16:00,
2013-02-17 06:21:00,21.7,15.0,26.98,North,0,0.0,0.0,75,0.00,CLR,,0.00,WeatherDisplay:10.37,2013-02-17 12:21:00,
2013-02-17 06:26:00,21.7,15.0,26.98,North,0,1.1,0.0,75,0.00,CLR,,0.00,WeatherDisplay:10.37,2013-02-17 12:26:00,
2013-02-17 06:31:00,21.6,14.9,26.97,NW,315,1.1,0.0,75,0.00,CLR,,0.00,WeatherDisplay:10.37,2013-02-17 12:31:00,
2013-02-17 06:36:00,21.2,14.5,26.97,North,0,0.0,0.0,75,0.00,CLR,,0.00,WeatherDisplay:10.37,2013-02-17 12:36:00,
2013-02-17 06:41:00,21.0,14.6,26.96,NW,315,0.0,0.0,76,0.00,CLR,,0.00,WeatherDisplay:10.37,2013-02-17 12:41:00,
2013-02-17 06:46:00,20.8,14.5,26.96,NW,315,0.0,0.0,76,0.00,CLR,,0.00,WeatherDisplay:10.37,2013-02-17 12:46:00,
2013-02-17 06:51:00,20.8,14.8,26.96,NW,315,0.0,0.0,77,0.00,CLR,,0.00,WeatherDisplay:10.37,2013-02-17 12:51:00,
2013-02-17 06:56:00,20.8,14.8,26.96,NW,315,0.0,0.0,77,0.00,CLR,,0.00,WeatherDisplay:10.37,2013-02-17 12:56:00,
2013-02-17 07:01:00,21.0,14.9,26.97,NW,315,0.0,0.0,77,0.00,CLR,,0.00,WeatherDisplay:10.37,2013-02-17 13:01:00,
2013-02-17 07:06:00,21.0,14.9,26.96,NW,315,0.0,0.0,77,0.00,CLR,,0.00,WeatherDisplay:10.37,2013-02-17 13:06:00,
2013-02-17 07:11:00,21.0,14.9,26.96,NW,315,0.0,0.0,77,0.00,CLR,,0.00,WeatherDisplay:10.37,2013-02-17 13:11:00,
2013-02-17 07:16:00,20.8,14.8,26.96,South,180,1.1,0.0,77,0.00,CLR,,0.00,WeatherDisplay:10.37,2013-02-17 13:16:00,
2013-02-17 07:22:00,20.7,14.6,26.95,South,180,0.0,0.0,77,0.00,CLR,,0.00,WeatherDisplay:10.37,2013-02-17 13:22:00,
2013-02-17 07:27:00,20.7,14.3,26.95,NE,45,0.0,0.0,76,0.00,CLR,,0.00,WeatherDisplay:10.37,2013-02-17 13:27:00,
2013-02-17 07:32:00,20.5,14.1,26.96,NNE,22,0.0,0.0,76,0.00,CLR,,0.00,WeatherDisplay:10.37,2013-02-17 13:32:00,
2013-02-17 07:37:00,20.5,14.1,26.95,North,0,0.0,0.0,76,0.00,CLR,,0.00,WeatherDisplay:10.37,2013-02-17 13:37:00,
2013-02-17 07:42:00,20.7,14.6,26.95,North,0,0.0,0.0,77,0.00,CLR,,0.00,WeatherDisplay:10.37,2013-02-17 13:42:00,
2013-02-17 07:47:00,20.8,14.8,26.95,North,0,0.0,0.0,77,0.00,CLR,,0.00,WeatherDisplay:10.37,2013-02-17 13:47:00,
2013-02-17 07:52:00,20.8,14.8,26.95,NW,315,0.0,0.0,77,0.00,CLR,,0.00,WeatherDisplay:10.37,2013-02-17 13:52:00,
2013-02-17 07:57:00,21.0,15.2,26.95,NW,315,1.1,1.1,78,0.00,CLR,,0.00,WeatherDisplay:10.37,2013-02-17 13:57:00,
2013-02-17 08:02:00,21.0,15.2,26.95,NW,315,0.0,0.0,78,0.00,CLR,,0.00,WeatherDisplay:10.37,2013-02-17 14:02:00,
2013-02-17 08:07:00,21.0,15.2,26.95,NW,315,0.0,0.0,78,0.00,CLR,,0.00,WeatherDisplay:10.37,2013-02-17 14:07:00,
2013-02-17 08:12:00,21.0,15.2,26.95,NW,315,0.0,0.0,78,0.00,CLR,,0.00,WeatherDisplay:10.37,2013-02-17 14:12:00,
2013-02-17 08:17:00,21.4,15.3,26.95,NW,315,0.0,0.0,77,0.00,CLR,,0.00,WeatherDisplay:10.37,2013-02-17 14:17:00,
2013-02-17 08:22:00,21.9,15.8,26.95,NW,315,0.0,0.0,77,0.00,CLR,,0.00,WeatherDisplay:10.37,2013-02-17 14:22:00,
2013-02-17 08:27:00,22.3,16.2,26.94,North,0,0.0,0.0,77,0.00,CLR,,0.00,WeatherDisplay:10.37,2013-02-17 14:27:00,
2013-02-17 08:32:00,22.6,16.5,26.94,North,0,0.0,0.0,77,0.00,CLR,,0.00,WeatherDisplay:10.37,2013-02-17 14:32:00,
2013-02-17 08:37:00,23.2,16.7,26.94,NW,315,0.0,0.0,76,0.00,CLR,,0.00,WeatherDisplay:10.37,2013-02-17 14:37:00,
2013-02-17 08:42:00,23.5,17.1,26.94,NW,315,0.0,0.0,76,0.00,CLR,,0.00,WeatherDisplay:10.37,2013-02-17 14:42:00,
2013-02-17 08:47:00,24.1,17.6,26.94,North,0,0.0,0.0,76,0.00,CLR,,0.00,WeatherDisplay:10.37,2013-02-17 14:47:00,
2013-02-17 08:52:00,24.8,18.0,26.94,NW,315,0.0,0.0,75,0.00,CLR,,0.00,WeatherDisplay:10.37,2013-02-17 14:52:00,
2013-02-17 08:57:00,25.2,18.3,26.94,NW,315,0.0,0.0,75,0.00,CLR,,0.00,WeatherDisplay:10.37,2013-02-17 14:57:00,
2013-02-17 09:02:00,25.9,19.0,26.94,NW,315,0.0,0.0,75,0.00,CLR,,0.00,WeatherDisplay:10.37,2013-02-17 15:02:00,
2013-02-17 09:07:00,26.8,19.6,26.94,NW,315,0.0,0.0,74,0.00,CLR,,0.00,WeatherDisplay:10.37,2013-02-17 15:07:00,
2013-02-17 09:12:00,27.1,19.9,26.93,NW,315,0.0,0.0,74,0.00,CLR,,0.00,WeatherDisplay:10.37,2013-02-17 15:12:00,
2013-02-17 09:17:00,27.9,20.6,26.93,SW,225,0.0,0.0,74,0.00,CLR,,0.00,WeatherDisplay:10.37,2013-02-17 15:17:00,
2013-02-17 09:22:00,28.4,22.1,26.93,NE,45,0.0,0.0,77,0.00,CLR,,0.00,WeatherDisplay:10.37,2013-02-17 15:22:00,
2013-02-17 09:27:00,29.5,23.2,26.92,North,0,0.0,0.0,77,0.00,CLR,,0.00,WeatherDisplay:10.37,2013-02-17 15:27:00,
2013-02-17 09:32:00,30.4,23.4,26.92,NE,45,0.0,0.0,75,0.00,CLR,,0.00,WeatherDisplay:10.37,2013-02-17 15:32:00,
2013-02-17 09:37:00,31.6,24.6,26.92,North,0,0.0,0.0,75,0.00,CLR,,0.00,WeatherDisplay:10.37,2013-02-17 15:37:00,
2013-02-17 09:42:00,33.1,25.4,26.92,NE,45,0.0,0.0,73,0.00,CLR,,0.00,WeatherDisplay:10.37,2013-02-17 15:42:00,
2013-02-17 09:47:00,34.3,26.2,26.91,East,90,0.0,0.0,72,0.00,CLR,,0.00,WeatherDisplay:10.37,2013-02-17 15:47:00,
2013-02-17 09:52:00,35.4,26.9,26.92,South,180,0.0,0.0,71,0.00,CLR,,0.00,WeatherDisplay:10.37,2013-02-17 15:52:00,
2013-02-17 09:57:00,36.9,26.9,26.92,North,0,0.0,0.0,67,0.00,CLR,,0.00,WeatherDisplay:10.37,2013-02-17 15:57:00,
2013-02-17 10:02:00,37.2,26.9,26.92,North,0,0.0,0.0,66,0.00,CLR,,0.00,WeatherDisplay:10.37,2013-02-17 16:02:00,
2013-02-17 10:07:00,37.2,26.9,26.91,North,0,0.0,0.0,66,0.00,CLR,,0.00,WeatherDisplay:10.37,2013-02-17 16:07:00,
2013-02-17 10:12:00,38.8,29.5,26.91,South,180,0.0,0.0,69,0.00,CLR,,0.00,WeatherDisplay:10.37,2013-02-17 16:12:00,
2013-02-17 10:17:00,39.7,29.7,26.91,NE,45,0.0,0.0,67,0.00,CLR,,0.00,WeatherDisplay:10.37,2013-02-17 16:17:00,
2013-02-17 10:22:00,40.6,30.5,26.91,NE,45,0.0,0.0,67,0.00,CLR,,0.00,WeatherDisplay:10.37,2013-02-17 16:22:00,
2013-02-17 10:27:00,41.5,30.6,26.90,East,90,1.1,0.0,65,0.00,CLR,,0.00,WeatherDisplay:10.37,2013-02-17 16:27:00,
2013-02-17 10:32:00,41.9,31.0,26.90,East,90,1.1,1.1,65,0.00,CLR,,0.00,WeatherDisplay:10.37,2013-02-17 16:32:00,
2013-02-17 10:37:00,42.4,31.1,26.89,NE,45,0.0,0.0,64,0.00,CLR,,0.00,WeatherDisplay:10.37,2013-02-17 16:37:00,
2013-02-17 10:42:00,43.2,31.0,26.89,NE,45,0.0,0.0,62,0.00,CLR,,0.00,WeatherDisplay:10.37,2013-02-17 16:42:00,
2013-02-17 10:47:00,43.9,31.7,26.89,NE,45,0.0,0.0,62,0.00,CLR,,0.00,WeatherDisplay:10.37,2013-02-17 16:47:00,
2013-02-17 10:52:00,44.8,30.9,26.89,North,0,0.0,0.0,58,0.00,CLR,,0.00,WeatherDisplay:10.37,2013-02-17 16:52:00,
2013-02-17 10:57:00,45.5,31.6,26.89,NE,45,0.0,0.0,58,0.00,CLR,,0.00,WeatherDisplay:10.37,2013-02-17 16:57:00,
2013-02-17 11:02:00,46.8,32.3,26.89,North,0,0.0,0.0,57,0.00,CLR,,0.00,WeatherDisplay:10.37,2013-02-17 17:02:00,
2013-02-17 11:07:00,48.4,31.1,26.88,SW,225,3.5,3.5,51,0.00,CLR,,0.00,WeatherDisplay:10.37,2013-02-17 17:07:00,
2013-02-17 11:12:00,50.0,28.9,26.88,SW,225,2.3,2.3,44,0.00,CLR,,0.00,WeatherDisplay:10.37,2013-02-17 17:12:00,
2013-02-17 11:17:00,51.8,24.3,26.88,West,270,4.6,4.6,34,0.00,CLR,,0.00,WeatherDisplay:10.37,2013-02-17 17:17:00,
2013-02-17 11:22:00,53.1,23.9,26.88,SSW,202,2.3,2.3,32,0.00,CLR,,0.00,WeatherDisplay:10.37,2013-02-17 17:22:00,
2013-02-17 11:27:00,54.9,23.2,26.87,SSW,202,3.5,3.5,29,0.00,CLR,,0.00,WeatherDisplay:10.37,2013-02-17 17:27:00,
2013-02-17 11:32:00,55.4,21.9,26.87,South,180,4.6,0.0,27,0.00,CLR,,0.00,WeatherDisplay:10.37,2013-02-17 17:32:00,
2013-02-17 11:37:00,55.6,23.0,26.87,SE,135,3.5,3.5,28,0.00,CLR,,0.00,WeatherDisplay:10.37,2013-02-17 17:37:00,
2013-02-17 11:42:00,55.8,22.2,26.87,South,180,2.3,0.0,27,0.00,CLR,,0.00,WeatherDisplay:10.37,2013-02-17 17:42:00,
2013-02-17 11:47:00,55.9,22.4,26.87,South,180,4.6,0.0,27,0.00,CLR,,0.00,WeatherDisplay:10.37,2013-02-17 17:47:00,
2013-02-17 11:52:00,56.1,22.6,26.86,SE,135,9.2,9.2,27,0.00,CLR,,0.00,WeatherDisplay:10.37,2013-02-17 17:52:00,
2013-02-17 11:57:00,57.2,22.6,26.86,SE,135,5.8,5.8,26,0.00,CLR,,0.00,WeatherDisplay:10.37,2013-02-17 17:57:00,
2013-02-17 12:02:00,57.4,22.7,26.85,West,270,2.3,2.3,26,0.00,CLR,,0.00,WeatherDisplay:10.37,2013-02-17 18:02:00,
2013-02-17 12:07:00,57.4,22.7,26.85,West,270,2.3,2.3,26,0.00,CLR,,0.00,WeatherDisplay:10.37,2013-02-17 18:07:00,
2013-02-17 12:12:00,59.2,23.3,26.85,NW,315,3.5,3.5,25,0.00,CLR,,0.00,WeatherDisplay:10.37,2013-02-17 18:12:00,
2013-02-17 12:17:00,59.9,22.0,26.84,SW,225,6.9,6.9,23,0.00,CLR,,0.00,WeatherDisplay:10.37,2013-02-17 18:17:00,
2013-02-17 12:22:00,60.1,22.1,26.84,SW,225,5.8,5.8,23,0.00,CLR,,0.00,WeatherDisplay:10.37,2013-02-17 18:22:00,
2013-02-17 12:27:00,60.6,22.6,26.84,South,180,3.5,3.5,23,0.00,CLR,,0.00,WeatherDisplay:10.37,2013-02-17 18:27:00,
2013-02-17 12:32:00,61.5,22.3,26.83,SW,225,3.5,3.5,22,0.00,CLR,,0.00,WeatherDisplay:10.37,2013-02-17 18:32:00,
2013-02-17 12:37:00,62.1,22.7,26.83,West,270,3.5,3.5,22,0.00,CLR,,0.00,WeatherDisplay:10.37,2013-02-17 18:37:00,
2013-02-17 12:42:00,62.4,21.9,26.83,SW,225,3.5,3.5,21,0.00,CLR,,0.00,WeatherDisplay:10.37,2013-02-17 18:42:00,
2013-02-17 12:47:00,62.8,21.1,26.82,SW,225,3.5,3.5,20,0.00,CLR,,0.00,WeatherDisplay:10.37,2013-02-17 18:47:00,
2013-02-17 12:52:00,63.0,21.2,26.82,SW,225,6.9,6.9,20,0.00,CLR,,0.00,WeatherDisplay:10.37,2013-02-17 18:52:00,
2013-02-17 12:57:00,63.0,21.2,26.81,NW,315,3.5,3.5,20,0.00,CLR,,0.00,WeatherDisplay:10.37,2013-02-17 18:57:00,
2013-02-17 13:02:00,63.3,21.5,26.80,SW,225,3.5,3.5,20,0.00,CLR,,0.00,WeatherDisplay:10.37,2013-02-17 19:02:00,
2013-02-17 13:08:00,63.9,20.7,26.80,SSE,158,5.8,5.8,19,0.00,CLR,,0.00,WeatherDisplay:10.37,2013-02-17 19:08:00,
2013-02-17 13:13:00,64.2,21.0,26.80,South,180,3.5,3.5,19,0.00,CLR,,0.00,WeatherDisplay:10.37,2013-02-17 19:13:00,
2013-02-17 13:18:00,64.9,20.4,26.79,SW,225,3.5,0.0,18,0.00,CLR,,0.00,WeatherDisplay:10.37,2013-02-17 19:18:00,
2013-02-17 13:23:00,65.3,20.7,26.78,South,180,5.8,5.8,18,0.00,CLR,,0.00,WeatherDisplay:10.37,2013-02-17 19:23:00,
2013-02-17 13:28:00,65.5,20.8,26.78,West,270,5.8,5.8,18,0.00,CLR,,0.00,WeatherDisplay:10.37,2013-02-17 19:28:00,
2013-02-17 13:33:00,66.0,19.9,26.78,South,180,2.3,3.1,17,0.00,CLR,,0.00,WeatherDisplay:10.37,2013-02-17 19:33:00,
2013-02-17 13:38:00,66.6,20.3,26.77,South,180,8.1,8.1,17,0.00,CLR,,0.00,WeatherDisplay:10.37,2013-02-17 19:38:00,
2013-02-17 13:43:00,66.7,19.1,26.77,SW,225,5.8,5.8,16,0.00,CLR,,0.00,WeatherDisplay:10.37,2013-02-17 19:43:00,
2013-02-17 13:48:00,67.3,19.5,26.76,South,180,6.9,6.9,16,0.00,CLR,,0.00,WeatherDisplay:10.37,2013-02-17 19:48:00,
2013-02-17 13:53:00,67.5,19.6,26.76,SW,225,3.8,3.8,16,0.00,CLR,,0.00,WeatherDisplay:10.37,2013-02-17 19:53:00,
2013-02-17 13:58:00,67.5,19.6,26.75,South,180,6.9,6.9,16,0.00,CLR,,0.00,WeatherDisplay:10.37,2013-02-17 19:58:00,
2013-02-17 14:03:00,67.5,19.6,26.75,South,180,6.9,6.9,16,0.00,CLR,,0.00,WeatherDisplay:10.37,2013-02-17 20:03:00,
2013-02-17 14:08:00,67.8,19.9,26.75,SW,225,6.9,6.9,16,0.00,CLR,,0.00,WeatherDisplay:10.37,2013-02-17 20:08:00,
2013-02-17 14:13:00,67.8,19.9,26.74,South,180,5.8,5.8,16,0.00,CLR,,0.00,WeatherDisplay:10.37,2013-02-17 20:13:00,
2013-02-17 14:18:00,67.8,19.9,26.74,South,180,5.8,5.8,16,0.00,CLR,,0.00,WeatherDisplay:10.37,2013-02-17 20:18:00,
2013-02-17 14:23:00,67.6,19.8,26.74,South,180,5.8,5.8,16,0.00,CLR,,0.00,WeatherDisplay:10.37,2013-02-17 20:23:00,
2013-02-17 14:28:00,67.8,19.9,26.73,SE,135,5.8,5.8,16,0.00,CLR,,0.00,WeatherDisplay:10.37,2013-02-17 20:28:00,
2013-02-17 14:33:00,67.8,19.9,26.73,SE,135,8.1,8.1,16,0.00,CLR,,0.00,WeatherDisplay:10.37,2013-02-17 20:33:00,
2013-02-17 14:38:00,68.0,18.6,26.73,South,180,2.3,2.3,15,0.00,CLR,,0.00,WeatherDisplay:10.37,2013-02-17 20:38:00,
2013-02-17 14:43:00,68.0,18.6,26.73,West,270,3.5,3.5,15,0.00,CLR,,0.00,WeatherDisplay:10.37,2013-02-17 20:43:00,
2013-02-17 14:48:00,67.8,19.9,26.73,SW,225,1.1,0.0,16,0.00,CLR,,0.00,WeatherDisplay:10.37,2013-02-17 20:48:00,
2013-02-17 14:53:00,67.6,19.8,26.73,West,270,2.3,2.3,16,0.00,CLR,,0.00,WeatherDisplay:10.37,2013-02-17 20:53:00,
2013-02-17 14:58:00,67.5,19.6,26.73,SW,225,3.5,3.5,16,0.00,CLR,,0.00,WeatherDisplay:10.37,2013-02-17 20:58:00,
2013-02-17 15:03:00,67.5,19.6,26.72,SW,225,1.1,0.0,16,0.00,CLR,,0.00,WeatherDisplay:10.37,2013-02-17 21:03:00,
2013-02-17 15:08:00,67.5,19.6,26.72,NW,315,0.0,0.0,16,0.00,CLR,,0.00,WeatherDisplay:10.37,2013-02-17 21:08:00,
2013-02-17 15:13:00,67.6,19.8,26.72,NW,315,0.0,0.0,16,0.00,CLR,,0.00,WeatherDisplay:10.37,2013-02-17 21:13:00,
2013-02-17 15:18:00,67.6,19.8,26.72,West,270,0.0,0.0,16,0.00,CLR,,0.00,WeatherDisplay:10.37,2013-02-17 21:18:00,
2013-02-17 15:23:00,67.5,19.6,26.71,NW,315,0.0,0.0,16,0.00,CLR,,0.00,WeatherDisplay:10.37,2013-02-17 21:23:00,
2013-02-17 15:28:00,67.3,19.5,26.71,NNW,338,0.0,0.0,16,0.00,CLR,,0.00,WeatherDisplay:10.37,2013-02-17 21:28:00,
2013-02-17 15:33:00,66.9,19.2,26.70,North,0,0.0,0.0,16,0.00,CLR,,0.00,WeatherDisplay:10.37,2013-02-17 21:33:00,
2013-02-17 15:38:00,66.7,19.1,26.71,NW,315,0.0,0.0,16,0.00,CLR,,0.00,WeatherDisplay:10.37,2013-02-17 21:38:00,
2013-02-17 15:43:00,66.9,19.2,26.71,NW,315,0.0,0.0,16,0.00,CLR,,0.00,WeatherDisplay:10.37,2013-02-17 21:43:00,
2013-02-17 15:48:00,66.9,19.2,26.70,NW,315,0.0,0.0,16,0.00,CLR,,0.00,WeatherDisplay:10.37,2013-02-17 21:48:00,
2013-02-17 15:53:00,66.7,19.1,26.70,NW,315,0.0,0.0,16,0.00,CLR,,0.00,WeatherDisplay:10.37,2013-02-17 21:53:00,
2013-02-17 15:58:00,66.4,18.8,26.70,North,0,0.0,0.0,16,0.00,CLR,,0.00,WeatherDisplay:10.37,2013-02-17 21:58:00,
2013-02-17 16:03:00,66.4,18.8,26.69,NW,315,0.0,0.0,16,0.00,CLR,,0.00,WeatherDisplay:10.37,2013-02-17 22:03:00,
2013-02-17 16:08:00,65.8,19.8,26.69,North,0,0.0,0.0,17,0.00,CLR,,0.00,WeatherDisplay:10.37,2013-02-17 22:08:00,
2013-02-17 16:13:00,65.5,19.5,26.69,North,0,0.0,0.0,17,0.00,CLR,,0.00,WeatherDisplay:10.37,2013-02-17 22:13:00,
2013-02-17 16:18:00,65.3,19.3,26.69,North,0,0.0,0.0,17,0.00,CLR,,0.00,WeatherDisplay:10.37,2013-02-17 22:18:00,
2013-02-17 16:23:00,64.9,19.0,26.69,NW,315,0.0,0.0,17,0.00,CLR,,0.00,WeatherDisplay:10.37,2013-02-17 22:23:00,
2013-02-17 16:28:00,64.6,18.7,26.69,NW,315,0.0,0.0,17,0.00,CLR,,0.00,WeatherDisplay:10.37,2013-02-17 22:28:00,
2013-02-17 16:33:00,64.0,19.6,26.69,NW,315,0.0,0.0,18,0.00,CLR,,0.00,WeatherDisplay:10.37,2013-02-17 22:33:00,
2013-02-17 16:38:00,64.0,19.6,26.69,NW,315,0.0,0.0,18,0.00,CLR,,0.00,WeatherDisplay:10.37,2013-02-17 22:38:00,
2013-02-17 16:43:00,63.3,20.3,26.69,NW,315,0.0,0.0,19,0.00,CLR,,0.00,WeatherDisplay:10.37,2013-02-17 22:43:00,
2013-02-17 16:48:00,62.6,20.9,26.68,NW,315,0.0,0.0,20,0.00,CLR,,0.00,WeatherDisplay:10.37,2013-02-17 22:48:00,
2013-02-17 16:53:00,62.1,21.6,26.69,NW,315,0.0,0.0,21,0.00,CLR,,0.00,WeatherDisplay:10.37,2013-02-17 22:53:00,
2013-02-17 16:58:00,61.3,22.1,26.68,NW,315,0.0,0.0,22,0.00,CLR,,0.00,WeatherDisplay:10.37,2013-02-17 22:58:00,
2013-02-17 17:03:00,61.3,22.1,26.68,NW,315,0.0,0.0,22,0.00,CLR,,0.00,WeatherDisplay:10.37,2013-02-17 23:03:00,
2013-02-17 17:08:00,60.1,21.1,26.68,NW,315,1.1,0.0,22,0.00,CLR,,0.00,WeatherDisplay:10.37,2013-02-17 23:08:00,
2013-02-17 17:13:00,60.1,21.1,26.68,NW,315,1.1,0.0,22,0.00,CLR,,0.00,WeatherDisplay:10.37,2013-02-17 23:13:00,
2013-02-17 17:19:00,60.1,21.1,26.68,NNE,15,1.1,0.0,22,0.00,CLR,,0.00,WeatherDisplay:10.37,2013-02-17 23:19:00,
2013-02-17 17:24:00,60.1,21.1,26.67,North,0,1.1,0.0,22,0.00,CLR,,0.00,WeatherDisplay:10.37,2013-02-17 23:24:00,
2013-02-17 17:29:00,60.1,21.1,26.67,North,0,1.1,0.0,22,0.00,CLR,,0.00,WeatherDisplay:10.37,2013-02-17 23:29:00,
2013-02-17 17:34:00,60.1,21.1,26.67,North,0,1.1,0.0,22,0.00,CLR,,0.00,WeatherDisplay:10.37,2013-02-17 23:34:00,
2013-02-17 17:39:00,60.1,21.1,26.67,North,0,1.1,0.0,22,0.00,CLR,,0.00,WeatherDisplay:10.37,2013-02-17 23:39:00,
2013-02-17 17:44:00,60.1,21.1,26.67,North,0,1.1,0.0,22,0.00,CLR,,0.00,WeatherDisplay:10.37,2013-02-17 23:44:00,
2013-02-17 17:49:00,60.1,21.1,26.67,North,0,1.1,0.0,22,0.00,CLR,,0.00,WeatherDisplay:10.37,2013-02-17 23:49:00,
2013-02-17 17:54:00,60.1,21.1,26.67,North,0,1.1,0.0,22,0.00,CLR,,0.00,WeatherDisplay:10.37,2013-02-17 23:54:00,
2013-02-17 17:59:00,60.1,21.1,26.67,North,0,1.1,0.0,22,0.00,CLR,,0.00,WeatherDisplay:10.37,2013-02-17 23:59:00,
2013-02-17 18:04:00,60.1,21.1,26.67,North,0,1.6,0.0,22,0.00,CLR,,0.00,WeatherDisplay:10.37,2013-02-18 00:04:00,
2013-02-17 18:09:00,60.1,21.1,26.67,North,0,1.1,0.0,22,0.00,CLR,,0.00,WeatherDisplay:10.37,2013-02-18 00:09:00,
2013-02-17 18:14:00,60.1,21.1,26.67,North,0,1.1,0.0,22,0.00,CLR,,0.00,WeatherDisplay:10.37,2013-02-18 00:14:00,
2013-02-17 18:19:00,60.1,21.1,26.67,North,0,1.1,0.0,22,0.00,CLR,,0.00,WeatherDisplay:10.37,2013-02-18 00:19:00,
2013-02-17 18:24:00,60.1,21.1,26.67,North,0,1.1,0.0,22,0.00,CLR,,0.00,WeatherDisplay:10.37,2013-02-18 00:24:00,
2013-02-17 18:29:00,60.1,21.1,26.67,North,0,1.1,0.0,22,0.00,CLR,,0.00,WeatherDisplay:10.37,2013-02-18 00:29:00,
2013-02-17 18:34:00,51.6,20.4,26.67,East,90,0.0,0.0,29,0.00,CLR,,0.00,WeatherDisplay:10.37,2013-02-18 00:34:00,
2013-02-17 18:39:00,51.6,20.4,26.67,East,90,0.0,0.0,29,0.00,CLR,,0.00,WeatherDisplay:10.37,2013-02-18 00:39:00,
2013-02-17 18:44:00,51.6,20.4,26.67,North,4,0.0,0.0,29,0.00,CLR,,0.00,WeatherDisplay:10.37,2013-02-18 00:44:00,
2013-02-17 18:49:00,51.6,20.4,26.67,North,0,0.0,0.0,29,0.00,CLR,,0.00,WeatherDisplay:10.37,2013-02-18 00:49:00,
2013-02-17 18:54:00,51.6,20.4,26.67,North,0,0.0,0.0,29,0.00,CLR,,0.00,WeatherDisplay:10.37,2013-02-18 00:54:00,
2013-02-17 18:59:00,51.6,20.4,26.67,North,0,0.0,0.0,29,0.00,CLR,,0.00,WeatherDisplay:10.37,2013-02-18 00:59:00,
2013-02-17 19:04:00,51.6,20.4,26.66,North,0,0.0,0.0,29,0.00,CLR,,0.00,WeatherDisplay:10.37,2013-02-18 01:04:00,
2013-02-17 19:09:00,51.6,20.4,26.66,North,0,0.0,0.0,29,0.00,CLR,,0.00,WeatherDisplay:10.37,2013-02-18 01:09:00,
2013-02-17 19:14:00,51.6,20.4,26.66,North,0,0.0,0.0,29,0.00,CLR,,0.00,WeatherDisplay:10.37,2013-02-18 01:14:00,
2013-02-17 19:19:00,51.6,20.4,26.66,North,0,0.0,0.0,29,0.00,CLR,,0.00,WeatherDisplay:10.37,2013-02-18 01:19:00,
2013-02-17 19:24:00,51.6,20.4,26.67,North,0,0.0,0.0,29,0.00,CLR,,0.00,WeatherDisplay:10.37,2013-02-18 01:24:00,
2013-02-17 19:29:00,51.6,20.4,26.67,North,0,0.0,0.0,29,0.00,CLR,,0.00,WeatherDisplay:10.37,2013-02-18 01:29:00,
2013-02-17 19:34:00,51.6,20.4,26.66,North,0,0.0,0.0,29,0.00,CLR,,0.00,WeatherDisplay:10.37,2013-02-18 01:34:00,
2013-02-17 19:39:00,44.8,23.1,26.66,NW,315,0.0,0.0,42,0.00,CLR,,0.00,WeatherDisplay:10.37,2013-02-18 01:39:00,
2013-02-17 19:44:00,44.6,22.9,26.66,NW,315,0.0,0.0,42,0.00,CLR,,0.00,WeatherDisplay:10.37,2013-02-18 01:44:00,
2013-02-17 19:49:00,44.6,22.9,26.66,NW,315,0.0,0.0,42,0.00,CLR,,0.00,WeatherDisplay:10.37,2013-02-18 01:49:00,
2013-02-17 19:54:00,44.2,23.1,26.66,NW,315,0.0,0.0,43,0.00,CLR,,0.00,WeatherDisplay:10.37,2013-02-18 01:54:00,
2013-02-17 19:59:00,44.2,23.1,26.66,NW,315,0.0,0.0,43,0.00,CLR,,0.00,WeatherDisplay:10.37,2013-02-18 01:59:00,
2013-02-17 20:04:00,44.2,23.1,26.66,NW,315,0.0,0.0,43,0.00,CLR,,0.00,WeatherDisplay:10.37,2013-02-18 02:04:00,
2013-02-17 20:09:00,44.2,23.1,26.67,NW,315,0.0,0.0,43,0.00,CLR,,0.00,WeatherDisplay:10.37,2013-02-18 02:09:00,
2013-02-17 20:14:00,44.2,23.1,26.66,North,0,0.0,0.0,43,0.00,CLR,,0.00,WeatherDisplay:10.37,2013-02-18 02:14:00,
2013-02-17 20:19:00,44.2,23.1,26.66,North,0,0.0,0.0,43,0.00,CLR,,0.00,WeatherDisplay:10.37,2013-02-18 02:19:00,
2013-02-17 20:24:00,44.2,23.1,26.66,North,0,0.0,0.0,43,0.00,CLR,,0.00,WeatherDisplay:10.37,2013-02-18 02:24:00,
2013-02-17 20:29:00,44.2,22.0,26.66,NW,315,0.0,0.0,41,0.00,CLR,,0.00,WeatherDisplay:10.37,2013-02-18 02:29:00,
2013-02-17 20:34:00,44.2,22.0,26.66,NW,315,0.0,0.0,41,0.00,CLR,,0.00,WeatherDisplay:10.37,2013-02-18 02:34:00,
2013-02-17 20:39:00,44.2,22.0,26.66,North,1,0.0,0.0,41,0.00,CLR,,0.00,WeatherDisplay:10.37,2013-02-18 02:39:00,
2013-02-17 20:44:00,44.2,22.0,26.69,North,0,0.0,0.0,41,0.00,CLR,,0.00,WeatherDisplay:10.37,2013-02-18 02:44:00,
2013-02-17 20:49:00,44.2,22.0,26.68,North,0,0.0,0.0,41,0.00,CLR,,0.00,WeatherDisplay:10.37,2013-02-18 02:49:00,
2013-02-17 20:54:00,44.8,21.3,26.69,NW,315,8.1,8.1,39,0.00,CLR,,0.00,WeatherDisplay:10.37,2013-02-18 02:54:00,
2013-02-17 20:59:00,44.8,21.3,26.69,NW,315,8.1,8.1,39,0.00,CLR,,0.00,WeatherDisplay:10.37,2013-02-18 02:59:00,
2013-02-17 21:04:00,44.8,21.3,26.69,NNE,15,8.1,8.1,39,0.00,CLR,,0.00,WeatherDisplay:10.37,2013-02-18 03:04:00,
2013-02-17 21:09:00,44.8,21.3,26.69,North,0,8.1,8.1,39,0.00,CLR,,0.00,WeatherDisplay:10.37,2013-02-18 03:09:00,
2013-02-17 21:14:00,44.8,21.3,26.69,North,0,8.3,8.3,39,0.00,CLR,,0.00,WeatherDisplay:10.37,2013-02-18 03:14:00,
2013-02-17 21:19:00,44.8,21.3,26.69,North,0,8.1,8.1,39,0.00,CLR,,0.00,WeatherDisplay:10.37,2013-02-18 03:19:00,
2013-02-17 21:24:00,44.8,21.3,26.69,North,0,8.1,8.1,39,0.00,CLR,,0.00,WeatherDisplay:10.37,2013-02-18 03:24:00,
2013-02-17 21:29:00,44.8,21.3,26.69,North,0,8.1,8.1,39,0.00,CLR,,0.00,WeatherDisplay:10.37,2013-02-18 03:29:00,
2013-02-17 21:34:00,44.8,21.3,26.70,North,0,8.1,8.1,39,0.00,CLR,,0.00,WeatherDisplay:10.37,2013-02-18 03:34:00,
2013-02-17 21:39:00,44.8,21.3,26.70,North,0,8.1,8.1,39,0.00,CLR,,0.00,WeatherDisplay:10.37,2013-02-18 03:39:00,
2013-02-17 21:44:00,44.8,21.3,26.70,North,0,8.1,8.1,39,0.00,CLR,,0.00,WeatherDisplay:10.37,2013-02-18 03:44:00,
2013-02-17 21:49:00,44.8,21.3,26.71,North,0,8.1,8.1,39,0.00,CLR,,0.00,WeatherDisplay:10.37,2013-02-18 03:49:00,
2013-02-17 21:54:00,44.8,21.3,26.71,North,0,8.1,8.1,39,0.00,CLR,,0.00,WeatherDisplay:10.37,2013-02-18 03:54:00,
2013-02-17 21:59:00,44.8,21.3,26.71,North,0,8.1,8.1,39,0.00,CLR,,0.00,WeatherDisplay:10.37,2013-02-18 03:59:00,
2013-02-17 22:04:00,44.8,21.3,26.71,North,0,8.1,8.1,39,0.00,CLR,,0.00,WeatherDisplay:10.37,2013-02-18 04:04:00,
2013-02-17 22:09:00,44.8,21.3,26.71,North,0,8.1,8.1,39,0.00,CLR,,0.00,WeatherDisplay:10.37,2013-02-18 04:09:00,
2013-02-17 22:14:00,44.8,21.3,26.71,North,0,8.1,8.1,39,0.00,CLR,,0.00,WeatherDisplay:10.37,2013-02-18 04:14:00,
2013-02-17 22:19:00,44.6,22.9,26.72,North,0,8.1,8.1,42,0.00,CLR,,0.00,WeatherDisplay:10.37,2013-02-18 04:19:00,
2013-02-17 22:24:00,44.6,22.9,26.71,North,0,10.4,10.4,42,0.00,CLR,,0.00,WeatherDisplay:10.37,2013-02-18 04:24:00,
2013-02-17 22:29:00,44.6,22.9,26.72,North,0,10.4,10.4,42,0.00,CLR,,0.00,WeatherDisplay:10.37,2013-02-18 04:29:00,
2013-02-17 22:34:00,45.0,23.8,26.72,NW,315,12.7,12.7,43,0.00,CLR,,0.00,WeatherDisplay:10.37,2013-02-18 04:34:00,
2013-02-17 22:40:00,45.0,23.8,26.73,NW,315,12.7,12.7,43,0.00,CLR,,0.00,WeatherDisplay:10.37,2013-02-18 04:40:00,
2013-02-17 22:45:00,45.0,23.8,26.73,North,1,12.7,12.7,43,0.00,CLR,,0.00,WeatherDisplay:10.37,2013-02-18 04:45:00,
2013-02-17 22:50:00,45.0,23.8,26.72,North,0,12.7,12.7,43,0.00,CLR,,0.00,WeatherDisplay:10.37,2013-02-18 04:50:00,
2013-02-17 22:55:00,45.0,23.8,26.73,North,0,12.7,12.7,43,0.00,CLR,,0.00,WeatherDisplay:10.37,2013-02-18 04:55:00,
2013-02-17 23:00:00,44.8,28.2,26.72,North,0,17.3,17.3,52,0.00,CLR,,0.00,WeatherDisplay:10.37,2013-02-18 05:00:00,
2013-02-17 23:05:00,44.6,28.5,26.73,North,0,18.4,18.4,53,0.00,CLR,,0.00,WeatherDisplay:10.37,2013-02-18 05:05:00,
2013-02-17 23:10:00,44.2,29.5,26.72,NW,315,16.1,16.1,56,0.00,CLR,,0.00,WeatherDisplay:10.37,2013-02-18 05:10:00,
2013-02-17 23:15:00,44.2,29.5,26.72,WNW,292,18.4,18.4,56,0.00,CLR,,0.00,WeatherDisplay:10.37,2013-02-18 05:15:00,
2013-02-17 23:20:00,44.2,29.5,26.72,WNW,292,18.4,18.4,56,0.00,CLR,,0.00,WeatherDisplay:10.37,2013-02-18 05:20:00,
2013-02-17 23:25:00,44.2,29.5,26.74,NNE,16,18.4,18.4,56,0.00,CLR,,0.00,WeatherDisplay:10.37,2013-02-18 05:25:00,
2013-02-17 23:30:00,43.7,29.5,26.74,NW,315,21.9,21.9,57,0.00,CLR,,0.00,WeatherDisplay:10.37,2013-02-18 05:30:00,
2013-02-17 23:35:00,43.7,29.5,26.74,NW,315,21.9,21.9,57,0.00,CLR,,0.00,WeatherDisplay:10.37,2013-02-18 05:35:00,
2013-02-17 23:40:00,43.7,29.5,26.74,North,1,21.9,21.9,57,0.00,CLR,,0.00,WeatherDisplay:10.37,2013-02-18 05:40:00,
2013-02-17 23:45:00,42.8,29.0,26.75,North,0,21.9,21.9,58,0.00,CLR,,0.00,WeatherDisplay:10.37,2013-02-18 05:45:00,
2013-02-17 23:50:00,42.6,29.3,26.75,North,0,18.4,18.4,59,0.00,CLR,,0.00,WeatherDisplay:10.37,2013-02-18 05:50:00,
2013-02-17 23:55:00,42.6,29.3,26.75,North,0,18.4,18.4,59,0.00,CLR,,0.00,WeatherDisplay:10.37,2013-02-18 05:55:00,